GW5607 Weather Reports


time (UTC)temp
C
wind
direction
speed
KPH
gust
KPH
rain 1hr
cm
rain 24hr
cm
rain mn
cm
humidity
%
barometer
mb
20260906122903 25 159 0.0 0.0 0.00 0.00 0.00 87 1013.3
20260906122358 25 171 0.0 0.0 0.00 0.00 0.00 88 1013.2
20260906121855 24 166 0.0 0.0 0.00 0.00 0.00 90 1013.2
20260906121351 24 164 0.0 0.0 0.00 0.00 0.00 90 1013.2
20260906120847 24 163 0.0 0.0 0.00 0.00 0.00 91 1013.0
20260906120343 23 160 0.0 0.0 0.00 0.00 0.00 92 1013.0
20260906115839 23 162 0.0 0.0 0.00 0.00 0.00 92 1013.1
20260906115334 23 165 0.0 0.0 0.00 0.00 0.00 92 1012.6
20260906114833 23 165 0.0 0.0 0.00 0.00 0.00 92 1012.8
20260906114328 23 165 0.0 0.0 0.00 0.00 0.00 92 1012.7
20260906113824 23 165 0.0 0.0 0.00 0.00 0.00 92 1012.7
20260906113323 23 165 0.0 0.0 0.00 0.00 0.00 91 1012.3
20260906112818 23 164 0.0 0.0 0.00 0.00 0.00 91 1012.3
20260906112314 23 164 0.0 0.0 0.00 0.00 0.00 91 1012.4
20260906111814 23 164 0.0 0.0 0.00 0.00 0.00 91 1012.1
20260906111313 23 164 0.0 0.0 0.00 0.00 0.00 90 1012.3
20260906110809 23 162 0.0 0.0 0.00 0.00 0.00 90 1012.4
20260906110305 23 165 0.0 0.0 0.00 0.00 0.00 90 1012.0
20260906105803 24 165 0.0 0.0 0.00 0.00 0.00 89 1011.9
20260906105259 24 165 0.0 0.0 0.00 0.00 0.00 88 1012.1
20260906104754 24 165 0.0 0.0 0.00 0.00 0.00 88 1012.0
20260906104254 24 172 0.0 0.0 0.00 0.00 0.00 88 1012.0
20260906103752 24 174 0.0 0.0 0.00 0.00 0.00 88 1012.0
20260906103252 24 173 0.0 0.0 0.00 0.00 0.00 87 1011.9
20260906102748 24 175 0.0 0.0 0.00 0.00 0.00 87 1012.0
20260906102246 24 170 0.0 0.0 0.00 0.00 0.00 87 1012.0
20260906101742 24 170 0.0 0.0 0.00 0.00 0.00 86 1011.9
20260906101242 24 170 0.0 0.0 0.00 0.00 0.00 86 1012.0
20260906100737 25 166 0.0 0.0 0.00 0.00 0.00 87 1011.8
20260906100237 25 168 0.0 0.0 0.00 0.00 0.00 86 1011.7
20260906095732 25 162 0.0 0.0 0.00 0.00 0.00 86 1011.7
20260906095227 25 164 0.0 0.0 0.00 0.00 0.00 86 1011.8
20260906094726 25 165 0.0 0.0 0.00 0.00 0.00 86 1011.8
20260906094222 25 163 0.0 0.0 0.00 0.00 0.00 85 1011.7
20260906093718 25 164 0.0 0.0 0.00 0.00 0.00 85 1011.7
20260906093213 25 166 0.0 0.0 0.00 0.00 0.00 85 1011.7
20260906092709 25 166 0.0 0.0 0.00 0.00 0.00 85 1011.7
20260906092208 25 166 0.0 0.0 0.00 0.00 0.00 84 1011.5
20260906091704 25 164 0.0 0.0 0.00 0.00 0.00 85 1011.9
20260906091200 25 164 0.0 0.0 0.00 0.00 0.00 85 1011.7
20260906090656 25 162 0.0 0.0 0.00 0.00 0.00 86 1011.4
20260906090155 25 165 0.0 0.0 0.00 0.00 0.00 85 1011.6
20260906085655 25 155 0.0 0.0 0.00 0.00 0.00 87 1011.7
20260906085154 25 143 0.0 0.0 0.00 0.00 0.00 87 1011.7
20260906084649 25 160 0.0 0.0 0.00 0.00 0.00 87 1011.7
20260906084148 25 164 0.0 0.0 0.00 0.00 0.00 88 1011.6
20260906083643 25 164 0.0 0.0 0.00 0.00 0.00 88 1011.5
20260906083139 25 163 0.0 0.0 0.00 0.00 0.00 88 1011.6
20260906082634 25 163 0.0 0.0 0.00 0.00 0.00 88 1011.6
20260906082129 25 162 0.0 0.0 0.00 0.00 0.00 88 1011.5
20260906081625 25 165 0.0 0.0 0.00 0.00 0.00 89 1011.6
20260906081120 25 163 0.0 0.0 0.00 0.00 0.00 89 1011.8
20260906080617 25 157 0.0 0.0 0.00 0.00 0.00 88 1011.7
20260906080113 25 163 0.0 0.0 0.00 0.00 0.00 88 1011.7
20260906075612 25 165 0.0 0.0 0.00 0.00 0.00 88 1011.7
20260906075107 25 164 0.0 0.0 0.00 0.00 0.00 87 1011.5
20260906074603 25 167 0.0 0.0 0.00 0.00 0.00 87 1011.5
20260906074101 25 167 0.0 0.0 0.00 0.00 0.00 87 1011.7
20260906073556 25 166 0.0 0.0 0.00 0.00 0.00 87 1011.6
20260906073052 25 167 0.0 0.0 0.00 0.00 0.00 86 1011.5
20260906072552 25 167 0.0 0.0 0.00 0.00 0.00 86 1011.4
20260906072049 25 167 0.0 0.0 0.00 0.00 0.00 85 1011.4
20260906071545 26 174 0.0 0.0 0.00 0.00 0.00 84 1011.3
20260906071039 26 174 0.0 0.0 0.00 0.00 0.00 83 1011.3
20260906070536 26 174 0.0 0.0 0.00 0.00 0.00 83 1011.2
20260906070031 26 178 0.0 0.0 0.00 0.00 0.00 82 1011.3
20260906065531 26 175 0.0 0.0 0.00 0.00 0.00 82 1011.5
20260906065026 26 170 0.0 0.0 0.00 0.00 0.00 82 1011.4
20260906064523 26 170 0.0 0.0 0.00 0.00 0.00 82 1011.7
20260906064022 26 169 0.0 0.0 0.00 0.00 0.00 80 1011.6
20260906063518 26 165 0.0 0.0 0.00 0.00 0.00 79 1011.6
20260906063014 26 160 0.0 0.0 0.00 0.00 0.00 79 1011.6
20260906062509 26 163 0.0 0.0 0.00 0.00 0.00 80 1011.8
20260906062003 26 160 0.0 0.0 0.00 0.00 0.00 80 1011.9
20260906061500 26 161 0.0 0.0 0.00 0.00 0.00 80 1011.9
20260906060959 26 164 0.0 0.0 0.00 0.00 0.00 79 1011.7
20260906060456 26 168 0.0 0.0 0.00 0.00 0.00 79 1012.0
20260906055952 26 166 0.0 0.0 0.00 0.00 0.00 79 1011.8
20260906055448 26 160 0.0 0.0 0.00 0.00 0.00 79 1011.8
20260906054943 26 165 0.0 0.0 0.00 0.00 0.00 79 1012.0
20260906054443 26 164 0.0 0.0 0.00 0.00 0.00 81 1012.1
20260906053939 26 169 0.0 0.0 0.00 0.00 0.00 80 1012.0
20260906053435 26 175 0.0 0.0 0.00 0.00 0.00 79 1012.1
20260906052930 26 139 0.0 0.0 0.00 0.00 0.00 82 1012.1
20260906052427 26 165 0.0 0.0 0.00 0.00 0.00 81 1011.9
20260906051923 26 161 0.0 0.0 0.00 0.00 0.00 81 1012.3
20260906051418 26 166 0.0 0.0 0.00 0.00 0.00 79 1012.0
20260906050914 26 165 0.0 0.0 0.00 0.00 0.00 82 1012.1
20260906050413 26 159 0.0 0.0 0.00 0.00 0.00 84 1012.0
20260906045913 26 163 0.0 0.0 0.00 0.00 0.00 84 1012.1
20260906045411 26 160 0.0 0.0 0.00 0.00 0.00 84 1012.3
20260906044908 26 153 1.6 1.6 0.00 0.00 0.00 83 1012.2
20260906044408 27 166 0.0 0.0 0.00 0.00 0.00 82 1012.1
20260906043904 27 165 0.0 1.6 0.00 0.00 0.00 81 1012.0
20260906043400 27 172 0.0 0.0 0.00 0.00 0.00 80 1011.8
20260906042855 27 173 0.0 0.0 0.00 0.00 0.00 81 1012.0
20260906042353 27 172 0.0 0.0 0.00 0.00 0.00 83 1012.1
20260906041849 27 164 0.0 0.0 0.00 0.00 0.00 82 1011.9
20260906041345 27 165 0.0 0.0 0.00 0.00 0.00 82 1011.9
20260906040844 27 165 0.0 0.0 0.00 0.00 0.00 81 1012.0
20260906040340 27 164 0.0 0.0 0.00 0.00 0.00 81 1011.9
20260906035835 27 167 0.0 0.0 0.00 0.00 0.00 80 1011.7
20260906035330 27 167 0.0 0.0 0.00 0.00 0.00 81 1012.0
20260906034827 27 163 0.0 0.0 0.00 0.00 0.00 82 1011.7
20260906034326 27 166 0.0 0.0 0.00 0.00 0.00 81 1011.6
20260906033822 27 165 0.0 0.0 0.00 0.00 0.00 81 1011.7
20260906033321 27 165 0.0 0.0 0.00 0.00 0.00 81 1011.8
20260906032818 27 163 0.0 0.0 0.00 0.00 0.00 82 1011.7
20260906032313 27 164 0.0 0.0 0.00 0.00 0.00 81 1011.6
20260906031808 27 169 0.0 0.0 0.00 0.00 0.00 80 1011.7
20260906031304 27 169 0.0 0.0 0.00 0.00 0.00 81 1011.6
20260906030803 27 169 0.0 0.0 0.00 0.00 0.00 80 1011.6
20260906030259 27 169 0.0 0.0 0.00 0.00 0.00 81 1011.8
20260906025759 27 169 0.0 0.0 0.00 0.00 0.00 81 1011.8
20260906025253 28 168 0.0 0.0 0.00 0.00 0.00 80 1011.8
20260906024752 28 167 0.0 0.0 0.00 0.00 0.00 79 1011.7
20260906024251 28 167 0.0 0.0 0.00 0.00 0.00 79 1011.5
20260906023747 28 167 0.0 0.0 0.00 0.00 0.00 78 1011.5
20260906023242 28 167 0.0 0.0 0.00 0.00 0.00 78 1011.6
20260906022738 28 167 0.0 0.0 0.00 0.00 0.00 77 1011.4
20260906022233 28 165 0.0 0.0 0.00 0.00 0.00 78 1011.5
20260906021729 28 165 0.0 0.0 0.00 0.00 0.00 78 1011.3
20260906021227 28 165 0.0 0.0 0.00 0.00 0.00 79 1011.3
20260906020722 28 165 0.0 0.0 0.00 0.00 0.00 79 1011.1
20260906020217 28 165 0.0 0.0 0.00 0.00 0.00 78 1011.2
20260906015712 28 165 0.0 0.0 0.00 0.00 0.00 78 1011.0
20260906015210 28 166 0.0 0.0 0.00 0.00 0.00 78 1010.9
20260906014710 28 166 0.0 0.0 0.00 0.00 0.00 78 1011.0
20260906014207 28 166 0.0 0.0 0.00 0.00 0.00 78 1011.0
20260906013702 29 165 0.0 0.0 0.00 0.00 0.00 77 1010.8
20260906013157 29 162 0.0 0.0 0.00 0.00 0.00 75 1010.9
20260906012658 29 181 0.0 0.0 0.00 0.00 0.00 75 1010.7
20260906012157 30 161 0.0 0.0 0.00 0.00 0.00 75 1010.7
20260906011653 30 161 0.0 0.0 0.00 0.00 0.00 74 1010.8
20260906011148 30 165 0.0 0.0 0.00 0.00 0.00 73 1010.8
20260906010643 30 165 0.0 0.0 0.00 0.00 0.00 73 1010.8
20260906010139 30 165 0.0 0.0 0.00 0.00 0.00 72 1010.7
20260906005639 30 167 0.0 0.0 0.00 0.00 0.00 71 1010.6
20260906005138 30 167 0.0 0.0 0.00 0.00 0.00 69 1010.8
20260906004637 31 167 0.0 0.0 0.00 0.00 0.00 70 1010.6
20260906004132 31 167 0.0 0.0 0.00 0.00 0.00 70 1010.6
20260906003627 31 167 0.0 0.0 0.00 0.00 0.00 68 1010.6
20260906003123 31 166 0.0 0.0 0.00 0.00 0.00 66 1010.3
20260906002618 31 166 0.0 0.0 0.00 0.00 0.00 69 1010.5
20260906002113 32 166 0.0 0.0 0.00 0.00 0.00 68 1010.3
20260906001608 32 166 0.0 0.0 0.00 0.00 0.00 66 1010.5
20260906001102 32 166 0.0 0.0 0.00 0.00 0.00 65 1010.6
20260906000558 32 164 0.0 0.0 0.00 0.00 0.00 63 1010.8
20260906000053 33 165 0.0 0.0 0.00 0.00 0.00 63 1010.8
20260905235552 33 168 0.0 0.0 0.00 0.00 0.00 60 1010.8
20260905235048 33 168 0.0 0.0 0.00 0.00 0.00 60 1011.0
20260905234543 34 170 0.0 0.0 0.00 0.00 0.00 60 1011.0
20260905234038 35 166 0.0 0.0 0.00 0.00 0.00 59 1011.0
20260905233538 35 168 0.0 0.0 0.00 0.00 0.00 57 1011.0
20260905233038 35 169 0.0 0.0 0.00 0.00 0.00 55 1010.9
20260905232533 35 169 0.0 0.0 0.00 0.00 0.00 52 1011.1
20260905232029 36 170 0.0 0.0 0.00 0.00 0.00 50 1010.9
20260905231524 36 169 0.0 0.0 0.00 0.00 0.00 48 1011.0
20260905231021 36 174 0.0 0.0 0.00 0.00 0.00 48 1010.9
20260905230519 36 162 0.0 0.0 0.00 0.00 0.00 47 1010.8
20260905230018 37 162 1.6 1.6 0.00 0.00 0.00 44 1010.8
20260905225513 37 174 0.0 0.0 0.00 0.00 0.00 44 1010.9
20260905225008 38 169 0.0 1.6 0.00 0.00 0.00 41 1010.7
20260905224503 38 176 0.0 0.0 0.00 0.00 0.00 39 1010.8
20260905224002 37 174 0.0 0.0 0.00 0.00 0.00 41 1010.6
20260905223500 38 174 0.0 0.0 0.00 0.00 0.00 43 1010.8
20260905222955 38 176 0.0 1.6 0.00 0.00 0.00 41 1010.7
20260905222455 38 174 0.0 0.0 0.00 0.00 0.00 42 1010.6
20260905221950 37 159 0.0 0.0 0.00 0.00 0.00 41 1010.8
20260905221447 38 173 0.0 0.0 0.00 0.00 0.00 41 1010.8
20260905220943 38 178 0.0 0.0 0.00 0.00 0.00 42 1010.9
20260905220439 38 177 0.0 0.0 0.00 0.00 0.00 42 1011.0
20260905215938 38 183 1.6 1.6 0.00 0.00 0.00 42 1010.9
20260905215433 39 173 0.0 0.0 0.00 0.00 0.00 42 1010.9
20260905214930 39 172 0.0 0.0 0.00 0.00 0.00 44 1011.0
20260905214426 39 189 1.6 1.6 0.00 0.00 0.00 40 1010.9
20260905213925 39 177 0.0 0.0 0.00 0.00 0.00 41 1010.9
20260905213422 39 173 0.0 1.6 0.00 0.00 0.00 39 1010.9
20260905212917 39 178 0.0 0.0 0.00 0.00 0.00 39 1011.1
20260905212412 40 176 0.0 0.0 0.00 0.00 0.00 41 1011.0
20260905211911 39 178 0.0 0.0 0.00 0.00 0.00 40 1011.1
20260905211407 39 181 0.0 0.0 0.00 0.00 0.00 39 1011.0
20260905210903 40 176 0.0 1.6 0.00 0.00 0.00 38 1011.0
20260905210402 40 177 0.0 0.0 0.00 0.00 0.00 39 1011.2
20260905205902 40 178 0.0 0.0 0.00 0.00 0.00 40 1011.0
20260905205357 40 185 1.6 1.6 0.00 0.00 0.00 41 1011.1
20260905204855 39 182 0.0 0.0 0.00 0.00 0.00 38 1011.1
20260905204352 39 182 0.0 0.0 0.00 0.00 0.00 39 1011.4
20260905203850 39 179 0.0 0.0 0.00 0.00 0.00 38 1011.4
20260905203346 40 182 1.6 1.6 0.00 0.00 0.00 39 1011.4
20260905202842 39 177 0.0 0.0 0.00 0.00 0.00 38 1011.5
20260905202337 39 163 1.6 1.6 0.00 0.00 0.00 39 1011.6
20260905201833 40 182 1.6 1.6 0.00 0.00 0.00 38 1011.5
20260905201328 39 178 0.0 0.0 0.00 0.00 0.00 39 1011.7
20260905200828 39 158 0.0 1.6 0.00 0.00 0.00 37 1011.7
20260905200325 39 171 0.0 0.0 0.00 0.00 0.00 42 1012.0
20260905195821 39 172 1.6 3.2 0.00 0.00 0.00 41 1012.0
20260905195317 38 178 0.0 1.6 0.00 0.00 0.00 40 1012.0
20260905194813 38 189 0.0 1.6 0.00 0.00 0.00 40 1012.2
20260905194312 37 198 3.2 3.2 0.00 0.00 0.00 41 1012.2
20260905193812 38 109 6.4 6.4 0.00 0.00 0.00 40 1012.4
20260905193307 38 163 1.6 1.6 0.00 0.00 0.00 44 1012.4
20260905192802 38 175 1.6 1.6 0.00 0.00 0.00 40 1012.6
20260905192258 38 148 1.6 1.6 0.00 0.00 0.00 41 1012.6
20260905191757 38 212 3.2 3.2 0.00 0.00 0.00 38 1012.7
20260905191256 38 176 0.0 0.0 0.00 0.00 0.00 42 1012.7
20260905190755 38 170 1.6 1.6 0.00 0.00 0.00 40 1012.8
20260905190254 38 174 1.6 1.6 0.00 0.00 0.00 40 1012.7
20260905185753 38 181 1.6 1.6 0.00 0.00 0.00 43 1012.9
20260905185249 38 199 3.2 4.8 0.00 0.00 0.00 42 1013.1
20260905184748 38 156 1.6 1.6 0.00 0.00 0.00 42 1013.0
20260905184247 38 171 0.0 1.6 0.00 0.00 0.00 41 1013.0
20260905183741 38 168 1.6 1.6 0.00 0.00 0.00 41 1013.2
20260905183237 37 186 1.6 1.6 0.00 0.00 0.00 40 1013.1
20260905182736 37 31 1.6 3.2 0.00 0.00 0.00 41 1013.0
20260905182236 37 145 3.2 3.2 0.00 0.00 0.00 40 1013.1
20260905181731 37 140 1.6 1.6 0.00 0.00 0.00 42 1013.1
20260905181230 37 97 0.0 0.0 0.00 0.00 0.00 44 1013.0
20260905180725 37 184 0.0 0.0 0.00 0.00 0.00 42 1013.3
20260905180220 38 208 3.2 3.2 0.00 0.00 0.00 41 1013.5
20260905175720 37 177 0.0 1.6 0.00 0.00 0.00 40 1013.2
20260905175215 37 182 0.0 1.6 0.00 0.00 0.00 43 1013.3
20260905174710 37 175 1.6 1.6 0.00 0.00 0.00 41 1013.5
20260905174206 37 179 1.6 1.6 0.00 0.00 0.00 43 1013.5
20260905173702 37 176 1.6 1.6 0.00 0.00 0.00 46 1013.4
20260905173157 38 169 1.6 1.6 0.00 0.00 0.00 43 1013.6
20260905172657 38 175 0.0 0.0 0.00 0.00 0.00 42 1013.6
20260905172151 37 174 0.0 0.0 0.00 0.00 0.00 43 1013.7
20260905171647 37 160 0.0 0.0 0.00 0.00 0.00 43 1013.7
20260905171143 37 164 1.6 1.6 0.00 0.00 0.00 44 1013.8
20260905170640 37 177 0.0 1.6 0.00 0.00 0.00 45 1013.9
20260905170134 37 153 3.2 4.8 0.00 0.00 0.00 46 1013.9
20260905165628 37 166 0.0 1.6 0.00 0.00 0.00 48 1014.1
20260905165124 36 242 1.6 3.2 0.00 0.00 0.00 47 1014.1
20260905164619 36 129 1.6 3.2 0.00 0.00 0.00 50 1014.1
20260905164118 36 176 0.0 0.0 0.00 0.00 0.00 50 1014.0
20260905163615 36 172 0.0 1.6 0.00 0.00 0.00 49 1014.3
20260905163111 36 83 1.6 1.6 0.00 0.00 0.00 48 1014.3
20260905162607 36 24 3.2 3.2 0.00 0.00 0.00 49 1014.1
20260905162106 36 182 1.6 1.6 0.00 0.00 0.00 49 1014.3
20260905161606 36 180 3.2 3.2 0.00 0.00 0.00 50 1014.4
20260905161104 36 169 0.0 1.6 0.00 0.00 0.00 50 1014.2
20260905160603 36 171 0.0 1.6 0.00 0.00 0.00 50 1014.4
20260905155557 35 143 1.6 1.6 0.00 0.00 0.00 54 1014.5
20260905155055 35 169 0.0 0.0 0.00 0.00 0.00 54 1014.6
20260905154551 35 134 0.0 1.6 0.00 0.00 0.00 55 1014.4
20260905154046 35 167 1.6 1.6 0.00 0.00 0.00 56 1014.4
20260905153542 35 162 1.6 1.6 0.00 0.00 0.00 57 1014.4
20260905153042 34 139 1.6 1.6 0.00 0.00 0.00 58 1014.6
20260905152537 34 161 1.6 1.6 0.00 0.00 0.00 57 1014.4
20260905152032 34 161 1.6 1.6 0.00 0.00 0.00 57 1014.5
20260905151527 34 174 3.2 3.2 0.00 0.00 0.00 57 1014.5
20260905151022 34 163 0.0 0.0 0.00 0.00 0.00 58 1014.4
20260905150517 33 161 1.6 1.6 0.00 0.00 0.00 58 1014.4
20260905150016 33 171 0.0 0.0 0.00 0.00 0.00 61 1014.4
20260905145515 33 156 3.2 3.2 0.00 0.00 0.00 59 1014.4
20260905145014 32 165 0.0 1.6 0.00 0.00 0.00 62 1014.5
20260905144510 32 190 1.6 3.2 0.00 0.00 0.00 62 1014.5
20260905144008 32 169 0.0 0.0 0.00 0.00 0.00 63 1014.3
20260905143508 31 172 1.6 1.6 0.00 0.00 0.00 65 1014.4
20260905143003 31 173 1.6 1.6 0.00 0.00 0.00 66 1014.5
20260905142501 31 157 0.0 1.6 0.00 0.00 0.00 68 1014.5
20260905141957 31 171 0.0 0.0 0.00 0.00 0.00 67 1014.5
20260905141451 30 169 0.0 0.0 0.00 0.00 0.00 68 1014.3
20260905140948 30 184 1.6 1.6 0.00 0.00 0.00 68 1014.2
20260905140443 30 176 0.0 1.6 0.00 0.00 0.00 69 1014.3
20260905135941 30 178 0.0 1.6 0.00 0.00 0.00 71 1014.2
20260905135437 30 172 0.0 0.0 0.00 0.00 0.00 73 1014.3
20260905134933 29 174 0.0 0.0 0.00 0.00 0.00 73 1014.3
20260905134432 29 173 0.0 0.0 0.00 0.00 0.00 74 1014.2
20260905133932 29 173 0.0 0.0 0.00 0.00 0.00 73 1014.5
20260905133431 29 173 0.0 0.0 0.00 0.00 0.00 74 1014.1
20260905132932 28 174 0.0 0.0 0.00 0.00 0.00 72 1014.1
20260905132427 28 175 0.0 0.0 0.00 0.00 0.00 73 1014.3
20260905131922 28 174 0.0 0.0 0.00 0.00 0.00 74 1014.1
20260905131418 27 176 0.0 0.0 0.00 0.00 0.00 76 1013.9
20260905130918 27 172 0.0 0.0 0.00 0.00 0.00 79 1014.0
20260905130418 27 168 0.0 0.0 0.00 0.00 0.00 81 1014.0
20260905125917 26 168 0.0 0.0 0.00 0.00 0.00 84 1013.8
20260905125413 26 168 0.0 0.0 0.00 0.00 0.00 84 1014.0
20260905124908 26 168 0.0 0.0 0.00 0.00 0.00 85 1013.9
20260905124405 25 173 0.0 0.0 0.00 0.00 0.00 86 1013.9
20260905123904 25 173 0.0 0.0 0.00 0.00 0.00 86 1013.9
20260905123401 25 173 0.0 0.0 0.00 0.00 0.00 87 1013.9